Home > Weather > Ramsey > Past weeks

Flag for Isle of Man Past Weather in Ramsey, Isle of Man — Yesterday and Last 2 Weeks

Now
64 °F

Passing clouds.


Feels Like: 64 °F
Forecast: 55 / 63 °F
Wind: 10 mph from Northwest

Location: Isle Of Man / Ronaldsway Airport

Current Time: Aug 28, 2016 at 5:44:03 PM

Latest Report: Aug 28, 2016 at 4:50 PM


Visibility: N/A

Pressure: 29.98 "Hg

Humidity: 73%

Dew Point: 55 °F

Location of RamseyLocation

Past Weather in Ramsey — Graph

°F

Ramsey Temperature Yesterday

Maximum temperature yesterday: 64 °F (at 2:20 PM)
Minimum temperature yesterday: 52 °F (at 12:50 AM)
Average temperature yesterday: 60 °F

High & Low Weather Summary for the Past Weeks

 TemperatureHumidityPressure
High68 °F (Aug 16, 4:50 PM)100% (Aug 19, 6:20 AM)30.33 "Hg (Aug 19, 6:20 AM)
Low50 °F (Aug 15, 1:50 AM)52% (Aug 24, 4:50 PM)29.12 "Hg (Aug 20, 11:50 AM)
Average61 °F84%29.96 "Hg
* Reported Aug 13 4:20 PM — Aug 28 4:20 PM, Ramsey, Weather by CustomWeather, © 2016

Note: Actual official high and low records may vary slightly from our data, if they occured in-between our weather recording intervals... More about our weather records

Advertising

Ramsey Weather History for the Previous 24 Hours

Scroll right to see more
 ConditionsComfort  
Time TempWeatherWind HumidityBarometerVisibility
4:20 PM
Sun, Aug 28
64 °FScattered clouds.10 mph73%29.98 "HgN/A
3:50 PM64 °FScattered clouds.9 mph73%29.95 "HgN/A
3:20 PM64 °FPassing clouds.9 mph73%29.95 "HgN/A
2:50 PM66 °FScattered clouds.9 mph68%29.95 "HgN/A
2:20 PM66 °FScattered clouds.10 mph64%29.95 "HgN/A
1:50 PM64 °FScattered clouds.10 mph68%29.92 "HgN/A
1:20 PM64 °FScattered clouds.10 mph73%29.92 "HgN/A
12:50 PM64 °FScattered clouds.9 mph73%29.89 "HgN/A
12:20 PM63 °FPartly sunny.10 mph77%29.89 "HgN/A
11:50 AM64 °FScattered clouds.9 mph73%29.89 "HgN/A
11:20 AM64 °FScattered clouds.9 mph78%29.89 "HgN/A
10:50 AM63 °FScattered clouds.10 mph77%29.89 "HgN/A
10:20 AM63 °FScattered clouds.10 mph83%29.86 "HgN/A
9:50 AM63 °FScattered clouds.8 mph83%29.86 "HgN/A
9:20 AM61 °FPassing clouds.9 mph88%29.86 "HgN/A
8:50 AM63 °FPassing clouds.6 mph83%29.86 "HgN/A
8:20 AM61 °FScattered clouds.6 mph88%29.86 "HgN/A
7:50 AM59 °FScattered clouds.5 mph100%29.86 "HgN/A
7:20 AM59 °FPartly sunny.3 mph100%29.83 "HgN/A
6:50 AM59 °FPassing clouds.6 mph94%29.83 "HgN/A
6:20 AM59 °FMostly cloudy.7 mph100%29.83 "HgN/A
5:50 AM59 °FLight rain. Mostly cloudy.6 mph94%29.83 "HgN/A
4:50 AM59 °FLight rain. Mostly cloudy.12 mph100%29.83 "HgN/A
3:50 AM59 °FMostly cloudy.10 mph100%29.83 "HgN/A
1:50 AM59 °FHeavy rain. Low clouds.13 mph100%29.83 "Hg3 mi
12:50 AM61 °FLow clouds.14 mph94%29.86 "HgN/A
11:50 PM
Sat, Aug 27
61 °FMostly cloudy.15 mph94%29.86 "HgN/A
10:50 PM61 °FRain. Low clouds.12 mph94%29.89 "Hg3 mi
9:50 PM63 °FRain. Passing clouds.12 mph88%29.89 "Hg4 mi
8:50 PM61 °FScattered clouds.10 mph77%29.89 "HgN/A
8:20 PM63 °FSprinkles. Passing clouds.9 mph73%29.89 "HgN/A
7:50 PM63 °FSunny.7 mph73%29.89 "Hg10 mi
7:20 PM63 °FPassing clouds.6 mph73%29.92 "HgN/A
6:50 PM64 °FSunny.7 mph68%29.92 "Hg10 mi
6:20 PM64 °FSunny.10 mph64%29.92 "Hg10 mi
5:50 PM64 °FPassing clouds.9 mph68%29.95 "HgN/A
5:20 PM64 °FPassing clouds.12 mph68%29.95 "HgN/A
Weather by CustomWeather, © 2016

See weather overviewHow to use our weather pages